Location: Karaa?a�
(36.7158°N, 30.4165°E)
Time: 00:39:52
(UTC+00:00)

COSMOS 2455 - Pass Details

Date: 09 April 2020
Orbit: 899 x 910 km, 67.1° (Epoch: 06 June)

Event Time Altitude Azimuth Distance (km) Brightness Sun altitude
Rises 18:20:38 0° 334° (NNW) 3,542 6.8 -22.0°
Reaches altitude 10° 18:23:09 10° 335° (NNW) 2,598 6.0 -22.5°
Maximum altitude 18:29:12 81° 63° (ENE) 925 2.7 -23.5°
Enters shadow 18:30:45 52° 141° (SE) 1,114 2.9 -23.8°
